Location: Martin
(32.0982°N, 93.2193°W)
Time: 16:49:21
(UTC+00:00)

ARIANE 6 FM1 Upper Stage - Pass Details

Date: 22 September 2024
Orbit: 563 x 595 km, 62.0° (Epoch: 12 October)

Event Time Altitude Azimuth Distance (km) Brightness Sun altitude
Rises 00:39:41 0° 198° (SSW) 2,750 6.4 -7.1°
Reaches altitude 10° 00:41:57 10° 192° (SSW) 1,862 5.4 -7.6°
Maximum altitude 00:46:00 49° 118° (ESE) 743 2.9 -8.4°
Drops below altitude 10° 00:50:07 10° 43° (NE) 1,892 5.0 -9.3°
Sets 00:52:26 0° 38° (NE) 2,801 5.9 -9.8°
